Tracking 22882 objects as of 18-Apr-2021
HD Live streaming from Space Station
objects crossing your sky now

STARLINK-1818

Track STARLINK-1818 now!
10-day predictions
STARLINK-1818 is classified as:


NORAD ID: 46716
Int'l Code: 2020-073AY
Perigee: 553.1 km
Apogee: 555.6 km
Inclination: 53.1 °
Period: 95.6 minutes
Semi major axis: 6925 km
RCS: Unknown
Launch date: October 18, 2020
Source: United States (US)
Launch site: AIR FORCE EASTERN TEST RANGE (AFETR)
aabbcc
Your satellite tracking list
Your tracking list is empty




NASA's NSSDC Master Catalog

Two Line Element Set (TLE):
1 46716U 20073AY  21108.41858978  .00000070  00000-0  23629-4 0  9991
2 46716  53.0562 355.5114 0001783  76.6121 283.5066 15.06404324 27685
Source of the keplerian elements: AFSPC